When you browse on this site, cookies collect data to enhance your experience and personalize the content and advertising you see.
Visit our Privacy Policy to learn more. By continuing to use the site, you agree to this use of cookies and data.
  • In Hungary
  • List of Countries
  • For 7 days
  • Water Temperature
  • Weather Map
  • News
  • Weather Widgets
  • user-avatar
    Login

    Hourly Weather Orzk

    Today, 13 December, Friday

    Time Temperature Precipitation Wind Pressure Humidity
    00:00 -1°C° 0 mm 2 mps 733 mmHg 85%
    01:00 -1°C° 0 mm 2 mps 733 mmHg 86%
    02:00 -1°C° 0 mm 3 mps 732 mmHg 88%
    03:00 -1°C° 0 mm 3 mps 731 mmHg 91%
    04:00 -2°C° 0 mm 4 mps 730 mmHg 93%
    05:00 -2°C° 0 mm 4 mps 729 mmHg 94%
    06:00 -1°C° 0 mm 3 mps 729 mmHg 94%
    07:00 -1°C° 0 mm 3 mps 728 mmHg 94%
    08:00 -1°C° 0 mm 4 mps 727 mmHg 92%
    09:00 0°C° 0 mm 4 mps 727 mmHg 91%
    10:00 +1°C° 0 mm 4 mps 726 mmHg 89%
    11:00 +1°C° 0 mm 5 mps 725 mmHg 86%
    12:00 +2°C° 0 mm 5 mps 725 mmHg 84%
    13:00 +3°C° 0 mm 5 mps 724 mmHg 82%
    14:00 +2°C° 0 mm 5 mps 724 mmHg 83%
    15:00 +2°C° 0 mm 5 mps 724 mmHg 84%
    16:00 +1°C° 0 mm 4 mps 723 mmHg 85%
    17:00 +1°C° 0 mm 4 mps 724 mmHg 84%
    18:00 +1°C° 0 mm 4 mps 724 mmHg 82%
    19:00 +1°C° 0 mm 4 mps 725 mmHg 81%
    20:00 +1°C° 0 mm 4 mps 725 mmHg 80%
    21:00 +1°C° 0 mm 4 mps 725 mmHg 80%
    22:00 +1°C° 0 mm 5 mps 726 mmHg 79%
    23:00 +1°C° 0 mm 5 mps 726 mmHg 79%

    Tomorrow, 14 December, Saturday

    Time Temperature Precipitation Wind Pressure Humidity
    00:00 +1°C° 0 mm 5 mps 726 mmHg 79%
    01:00 0°C° 0 mm 5 mps 727 mmHg 79%
    02:00 0°C° 0 mm 5 mps 727 mmHg 80%
    03:00 0°C° 0 mm 5 mps 727 mmHg 82%
    04:00 -1°C° 0 mm 5 mps 727 mmHg 83%
    05:00 0°C° 0 mm 5 mps 728 mmHg 83%
    06:00 -1°C° 0 mm 6 mps 728 mmHg 83%
    07:00 -1°C° 0 mm 6 mps 728 mmHg 83%
    08:00 +1°C° 0 mm 6 mps 729 mmHg 80%
    09:00 0°C° 0 mm 7 mps 729 mmHg 78%
    10:00 +2°C° 0 mm 7 mps 729 mmHg 75%
    11:00 +2°C° 0 mm 7 mps 729 mmHg 74%
    12:00 +3°C° 0 mm 6 mps 730 mmHg 72%
    13:00 +3°C° 0 mm 6 mps 730 mmHg 71%
    14:00 +3°C° 0 mm 7 mps 730 mmHg 73%
    15:00 +2°C° 0 mm 7 mps 730 mmHg 75%
    16:00 +1°C° 0 mm 8 mps 730 mmHg 77%
    17:00 +1°C° 0.1 mm 8 mps 730 mmHg 77%
    18:00 +2°C° 0.1 mm 8 mps 731 mmHg 78%
    19:00 +3°C° 0.1 mm 9 mps 731 mmHg 78%
    20:00 +2°C° 0 mm 8 mps 732 mmHg 76%
    21:00 +2°C° 0 mm 7 mps 733 mmHg 73%
    22:00 +2°C° 0 mm 6 mps 734 mmHg 71%
    23:00 +2°C° 0 mm 6 mps 735 mmHg 73%

    Day after tomorrow, 15 December, Sunday

    Time Temperature Precipitation Wind Pressure Humidity
    00:00 +2°C° 0 mm 6 mps 735 mmHg 75%
    01:00 +2°C° 0 mm 6 mps 736 mmHg 78%
    02:00 +2°C° 0 mm 6 mps 736 mmHg 79%
    03:00 +2°C° 0 mm 6 mps 736 mmHg 80%
    04:00 +2°C° 0 mm 7 mps 737 mmHg 81%
    05:00 +2°C° 0 mm 6 mps 737 mmHg 81%
    06:00 +2°C° 0 mm 6 mps 737 mmHg 81%
    07:00 +2°C° 0 mm 5 mps 737 mmHg 81%
    08:00 +2°C° 0 mm 6 mps 737 mmHg 80%
    09:00 +3°C° 0 mm 6 mps 737 mmHg 79%
    10:00 +4°C° 0 mm 7 mps 737 mmHg 78%
    11:00 +5°C° 0.3 mm 8 mps 737 mmHg 73%
    12:00 +6°C° 0.3 mm 9 mps 737 mmHg 69%
    13:00 +6°C° 0.3 mm 10 mps 737 mmHg 64%
    14:00 +6°C° 0.1 mm 9 mps 737 mmHg 66%
    15:00 +6°C° 0.1 mm 9 mps 738 mmHg 69%
    16:00 +6°C° 0.1 mm 8 mps 738 mmHg 71%
    17:00 +6°C° 0.3 mm 7 mps 739 mmHg 74%
    18:00 +7°C° 0.3 mm 6 mps 740 mmHg 76%
    19:00 +5°C° 0.3 mm 6 mps 741 mmHg 79%
    20:00 +6°C° 0 mm 5 mps 741 mmHg 80%
    21:00 +5°C° 0 mm 5 mps 742 mmHg 82%
    22:00 +5°C° 0 mm 5 mps 742 mmHg 83%
    23:00 +5°C° 0 mm 4 mps 743 mmHg 85%

    16 December, Monday

    Time Temperature Precipitation Wind Pressure Humidity
    00:00 +4°C° 0 mm 4 mps 743 mmHg 86%
    01:00 +4°C° 0 mm 4 mps 743 mmHg 88%
    02:00 +4°C° 0 mm 3 mps 743 mmHg 89%
    03:00 +4°C° 0 mm 3 mps 744 mmHg 89%
    04:00 +4°C° 0 mm 3 mps 744 mmHg 90%
    05:00 +4°C° 0 mm 3 mps 744 mmHg 89%
    06:00 +3°C° 0 mm 3 mps 744 mmHg 89%
    07:00 +3°C° 0 mm 3 mps 744 mmHg 88%
    08:00 +4°C° 0 mm 3 mps 744 mmHg 84%
    09:00 +4°C° 0 mm 4 mps 744 mmHg 80%
    10:00 +5°C° 0 mm 4 mps 745 mmHg 77%
    11:00 +6°C° 0 mm 4 mps 744 mmHg 74%
    12:00 +6°C° 0 mm 4 mps 744 mmHg 72%
    13:00 +7°C° 0 mm 4 mps 743 mmHg 70%
    14:00 +7°C° 0 mm 4 mps 743 mmHg 72%
    15:00 +6°C° 0 mm 4 mps 743 mmHg 74%
    16:00 +6°C° 0 mm 4 mps 743 mmHg 77%
    17:00 +5°C° 0 mm 4 mps 743 mmHg 79%
    18:00 +5°C° 0 mm 4 mps 743 mmHg 81%
    19:00 +5°C° 0 mm 4 mps 743 mmHg 83%
    20:00 +5°C° 0 mm 4 mps 743 mmHg 85%
    21:00 +5°C° 0 mm 3 mps 743 mmHg 87%
    22:00 +4°C° 0 mm 3 mps 743 mmHg 89%
    23:00 +4°C° 0 mm 3 mps 743 mmHg 89%

    17 December, Tuesday

    Time Temperature Precipitation Wind Pressure Humidity
    00:00 +4°C° 0 mm 3 mps 742 mmHg 89%
    01:00 +4°C° 0 mm 4 mps 742 mmHg 89%
    02:00 +4°C° 0 mm 3 mps 742 mmHg 89%
    03:00 +4°C° 0 mm 3 mps 742 mmHg 89%
    04:00 +4°C° 0 mm 3 mps 742 mmHg 89%
    05:00 +4°C° 0 mm 3 mps 742 mmHg 88%
    06:00 +4°C° 0 mm 3 mps 742 mmHg 88%
    07:00 +4°C° 0 mm 3 mps 742 mmHg 87%
    08:00 +4°C° 0 mm 3 mps 742 mmHg 85%
    09:00 +5°C° 0 mm 3 mps 742 mmHg 82%
    10:00 +5°C° 0 mm 3 mps 742 mmHg 79%
    11:00 +7°C° 0 mm 3 mps 742 mmHg 78%
    12:00 +8°C° 0 mm 3 mps 742 mmHg 76%
    13:00 +8°C° 0 mm 3 mps 741 mmHg 75%
    14:00 +8°C° 0 mm 3 mps 741 mmHg 78%
    15:00 +7°C° 0 mm 3 mps 741 mmHg 80%
    16:00 +7°C° 0 mm 3 mps 741 mmHg 83%
    17:00 +7°C° 0 mm 3 mps 741 mmHg 83%
    18:00 +7°C° 0 mm 3 mps 741 mmHg 82%
    19:00 +7°C° 0 mm 3 mps 741 mmHg 82%
    20:00 +7°C° 0 mm 3 mps 742 mmHg 82%
    21:00 +7°C° 0 mm 3 mps 742 mmHg 82%
    22:00 +7°C° 0 mm 3 mps 742 mmHg 82%
    23:00 +7°C° 0 mm 3 mps 742 mmHg 83%

    18 December, Wednesday

    Time Temperature Precipitation Wind Pressure Humidity
    00:00 +7°C° 0 mm 3 mps 742 mmHg 84%
    01:00 +7°C° 0 mm 3 mps 741 mmHg 85%
    02:00 +7°C° 0 mm 3 mps 741 mmHg 88%
    03:00 +5°C° 0 mm 3 mps 741 mmHg 91%
    04:00 +5°C° 0 mm 3 mps 741 mmHg 93%
    05:00 +4°C° 0 mm 3 mps 741 mmHg 94%
    06:00 +5°C° 0 mm 2 mps 741 mmHg 94%
    07:00 +5°C° 0 mm 2 mps 741 mmHg 94%
    08:00 +5°C° 0 mm 3 mps 741 mmHg 93%
    09:00 +5°C° 0 mm 3 mps 742 mmHg 92%
    10:00 +7°C° 0 mm 3 mps 742 mmHg 91%
    11:00 +8°C° 0 mm 3 mps 742 mmHg 87%
    12:00 +7°C° 0 mm 4 mps 742 mmHg 83%
    13:00 +8°C° 0 mm 4 mps 741 mmHg 78%
    14:00 +8°C° 0 mm 4 mps 741 mmHg 82%
    15:00 +8°C° 0 mm 3 mps 742 mmHg 85%
    16:00 +8°C° 0 mm 3 mps 742 mmHg 88%
    17:00 +7°C° 0 mm 3 mps 742 mmHg 89%
    18:00 +7°C° 0 mm 3 mps 742 mmHg 90%
    19:00 +7°C° 0 mm 3 mps 742 mmHg 91%
    20:00 +5°C° 0 mm 3 mps 742 mmHg 91%
    21:00 +5°C° 0 mm 3 mps 742 mmHg 91%
    22:00 +5°C° 0 mm 2 mps 742 mmHg 91%
    23:00 +5°C° 0 mm 2 mps 742 mmHg 91%
    Show more